Weather History for KBNO - December, 2013

Change the Weather History Date:

Sunday, December 22, 2013

  Actual Average Record
Temperature  
Mean Temperature 37 °F 23 °F  
Max Temperature 50 °F 33 °F 53 °F (1964)
Min Temperature 24 °F 13 °F -28 °F (1990)
Degree Days  
Heating Degree Days 28 42  
Month to date heating degree days 1070 892  
Since 1 July heating degree days 2993 2893  
Cooling Degree Days 0 0  
Month to date cooling degree days 0 0  
Year to date cooling degree days 372 215  
Moisture  
Dew Point 31 °F    
Average Humidity 78    
Maximum Humidity 100    
Minimum Humidity 56    
Precipitation  
Precipitation 0.00 in 0.05 in 1.74 in (1964)
Month to date precipitation 0.21 1.11  
Year to date precipitation 6.90 10.48  
Sea Level Pressure  
Sea Level Pressure 30.28 in    
Wind  
Wind Speed 5 mph (SW)    
Max Wind Speed 18 mph    
Max Gust Speed 23 mph    
Visibility 10 miles    
Events      
T = Trace of Precipitation, MM = Missing Value Source: NWS Daily Summary

Daily Weather History Graph

Daily Weather History Graph

Search for Another Location

Airport or City:

Trip Planner

Search our weather history database for the weather conditions in past years. The results will help you decide how hot, cold, wet, or windy it might be!

Date:

Astronomy

Dec. 22, 2013 Rise Set
Actual Time 7:26 AM PST 4:22 PM PST
Civil Twilight 6:53 AM PST 4:55 PM PST
Nautical Twilight 6:17 AM PST 5:31 PM PST
Astronomical Twilight 5:42 AM PST 6:06 PM PST
Moon 9:49 PM PST (12/22) 10:16 AM PST (12/22)
Length of Visible Light 10h 01m
Length of Day
8h 56m
Waning Gibbous, 76% of the Moon is Illuminated
Dec 22
Waning Gibbous
Dec 25
Last Quarter
Jan 1
New
Jan 7
First Quarter
Jan 15
Full

Hourly Weather History & Observations

Time (PST) Temp. Windchill Dew Point Humidity Pressure Visibility Wind Dir Wind Speed Gust Speed Precip Events Conditions
12:53 AM 30.9 °F 27.5 °F 28.9 °F 92% 30.17 in 10.0 mi WSW 3.5 mph - N/A   Overcast
1:53 AM 32.0 °F 28.7 °F 30.0 °F 92% 30.17 in 10.0 mi SSW 3.5 mph - N/A   Overcast
2:53 AM 33.1 °F 28.7 °F 30.9 °F 92% 30.18 in 10.0 mi SW 4.6 mph - N/A   Overcast
3:53 AM 32.0 °F - 30.0 °F 92% 30.19 in 10.0 mi Calm Calm - N/A   Overcast
4:12 AM 30.9 °F - 30.0 °F 96% 30.16 in 10.0 mi Calm Calm - N/A   Overcast
4:49 AM 33.8 °F 28.6 °F 30.2 °F 87% 30.16 in 10.0 mi South 5.8 mph - N/A   Overcast
4:53 AM 33.1 °F 27.7 °F 30.9 °F 92% 30.22 in 10.0 mi South 5.8 mph - N/A   Overcast
5:53 AM 34.0 °F 29.8 °F 32.0 °F 92% 30.23 in 10.0 mi SSW 4.6 mph - N/A   Overcast
6:53 AM 34.0 °F 26.6 °F 32.0 °F 92% 30.26 in 10.0 mi South 9.2 mph - N/A   Overcast
7:44 AM 33.1 °F - 30.9 °F 92% 30.20 in 10.0 mi Calm Calm - N/A   Overcast
7:53 AM 33.1 °F - 30.9 °F 92% 30.27 in 10.0 mi Calm Calm - N/A   Overcast
8:16 AM 34.0 °F - 32.0 °F 92% 30.21 in 10.0 mi Calm Calm - N/A   Overcast
8:53 AM 36.0 °F - 33.1 °F 89% 30.29 in 10.0 mi Calm Calm - N/A   Overcast
9:04 AM 36.0 °F - 33.1 °F 89% 30.23 in 10.0 mi Calm Calm - N/A   Mostly Cloudy
9:53 AM 39.9 °F 36.7 °F 34.0 °F 79% 30.31 in 10.0 mi Variable 4.6 mph - N/A   Overcast
10:53 AM 44.1 °F 39.0 °F 36.0 °F 73% 30.30 in 10.0 mi SW 9.2 mph - N/A   Mostly Cloudy
11:53 AM 46.9 °F - 36.0 °F 66% 30.27 in 10.0 mi West 13.8 mph - N/A   Clear
12:53 PM 48.0 °F - 36.0 °F 63% 30.27 in 10.0 mi SW 15.0 mph - N/A   Partly Cloudy
1:53 PM 50.0 °F - 35.1 °F 57% 30.27 in 10.0 mi West 9.2 mph - N/A   Mostly Cloudy
2:53 PM 48.9 °F - 34.0 °F 56% 30.28 in 10.0 mi WSW 9.2 mph - N/A   Clear
3:53 PM 44.1 °F 39.5 °F 32.0 °F 63% 30.30 in 10.0 mi SW 8.1 mph - N/A   Clear
4:53 PM 37.0 °F 34.5 °F 30.0 °F 76% 30.34 in 10.0 mi Variable 3.5 mph - N/A   Clear
5:53 PM 34.0 °F 31.0 °F 28.9 °F 82% 30.35 in 10.0 mi East 3.5 mph - N/A   Clear
6:53 PM 30.9 °F 26.2 °F 28.0 °F 89% 30.37 in 10.0 mi South 4.6 mph - N/A   Clear
7:53 PM 32.0 °F 27.5 °F 28.9 °F 88% 30.38 in 10.0 mi WNW 4.6 mph - N/A   Overcast
8:53 PM 30.9 °F 27.5 °F 28.0 °F 89% 30.39 in 10.0 mi ESE 3.5 mph - N/A   Clear
9:53 PM 27.0 °F 21.6 °F 26.1 °F 96% 30.39 in 10.0 mi NNW 4.6 mph - N/A   Clear
10:53 PM 25.0 °F - 24.1 °F 96% 30.40 in 10.0 mi Calm Calm - N/A   Clear
11:53 PM 25.0 °F - 24.1 °F 96% 30.40 in 10.0 mi Calm Calm - N/A   Partly Cloudy